sat.trackr.live / text

‹ back to catalog

KUIPER-00074

NORAD 64821 · 2025-151F

PAYLOAD ACTIVE UNKNOWN

§ Identity

Operator
Country
US
Launch date
2025-07-16
Launch site
AFETR
Launch vehicle
Mass (kg)
RCS (m²)

External: N2YO · Heavens-Above · Gunter

§ Orbital elements

Epoch: 2026-05-25T04:24:25.810848Z

Period
91.09 min
Inclination
51.8907°
Eccentricity
0.0007651
Mean motion
15.80775168 rev/d
Perigee alt
323.1 km
Apogee alt
333.4 km
Semi-major
6,706.4 km
B*
1.6203e-3
RAAN
264.2759°
Arg perigee
295.4981°
Mean anomaly
64.5233°
Rev number
4,743

§ Raw data

KUIPER-000741 64821U 25151F   26145.18363207  .00331090  00000+0  16203-2 0  99922 64821  51.8907 264.2759 0007651 295.4981  64.5233 15.80775168 47434

JSON: /api/v1/satellites/64821 · /tle

For live sub-satellite position, see the globe view (requires WebGL).

§ Visibility from observer

Set your observer location to see the next 7 days of passes ≥ 10°. The values pass through the URL so the page stays shareable.

No JS? Fill the form by hand. The geolocation button needs JavaScript.